When you browse on this site, cookies collect data to enhance your experience and personalize the content and advertising you see.
Visit our Privacy Policy to learn more. By continuing to use the site, you agree to this use of cookies and data.
  • în România
  • Lista ţărilor
  • Pe 7 zile
  • Temperatura apei
  • Hartă satelitară
  • Meteo pe hartă
  • Widget-uri
  • user-avatar
    Intrare

    Meteo pe oră la Tervu

    Astăzi, 22 Februarie, Vineri

    Timp Temperatura Precipitaţii Vânt Presiune Umiditate
    00:00 -16°C° 0 mm 6 m/s 768 mmHg 86%
    01:00 -16°C° 0 mm 6 m/s 769 mmHg 86%
    02:00 -16°C° 0 mm 6 m/s 770 mmHg 86%
    03:00 -16°C° 0 mm 6 m/s 770 mmHg 85%
    04:00 -17°C° 0 mm 6 m/s 771 mmHg 84%
    05:00 -17°C° 0 mm 6 m/s 771 mmHg 84%
    06:00 -17°C° 0 mm 6 m/s 772 mmHg 82%
    07:00 -17°C° 0 mm 6 m/s 773 mmHg 81%
    08:00 -17°C° 0 mm 5 m/s 773 mmHg 80%
    09:00 -17°C° 0 mm 5 m/s 774 mmHg 78%
    10:00 -15°C° 0 mm 5 m/s 774 mmHg 76%
    11:00 -14°C° 0 mm 5 m/s 774 mmHg 74%
    12:00 -12°C° 0 mm 4 m/s 775 mmHg 74%
    13:00 -11°C° 0 mm 4 m/s 775 mmHg 74%
    14:00 -10°C° 0 mm 3 m/s 775 mmHg 74%
    15:00 -12°C° 0 mm 3 m/s 775 mmHg 77%
    16:00 -13°C° 0 mm 3 m/s 775 mmHg 81%
    17:00 -14°C° 0 mm 3 m/s 775 mmHg 84%
    18:00 -14°C° 0 mm 3 m/s 775 mmHg 84%
    19:00 -14°C° 0 mm 3 m/s 775 mmHg 85%
    20:00 -15°C° 0 mm 3 m/s 775 mmHg 85%
    21:00 -14°C° 0 mm 3 m/s 774 mmHg 82%
    22:00 -15°C° 0 mm 4 m/s 774 mmHg 80%
    23:00 -14°C° 0 mm 4 m/s 773 mmHg 78%

    Mâine, 23 Februarie, Sâmbătă

    Timp Temperatura Precipitaţii Vânt Presiune Umiditate
    00:00 -13°C° 0 mm 5 m/s 772 mmHg 74%
    01:00 -12°C° 0 mm 5 m/s 772 mmHg 71%
    02:00 -11°C° 0 mm 6 m/s 771 mmHg 67%
    03:00 -11°C° 0.3 mm 6 m/s 770 mmHg 75%
    04:00 -11°C° 0.3 mm 7 m/s 769 mmHg 82%
    05:00 -9°C° 0.3 mm 7 m/s 768 mmHg 90%
    06:00 -8°C° 0.7 mm 7 m/s 767 mmHg 90%
    07:00 -7°C° 0.7 mm 7 m/s 766 mmHg 90%
    08:00 -6°C° 0.7 mm 7 m/s 765 mmHg 90%
    09:00 -4°C° 0.2 mm 7 m/s 765 mmHg 90%
    10:00 -3°C° 0.2 mm 6 m/s 764 mmHg 90%
    11:00 -2°C° 0.2 mm 6 m/s 764 mmHg 90%
    12:00 -1°C° 0 mm 6 m/s 763 mmHg 92%
    13:00 -1°C° 0 mm 6 m/s 763 mmHg 93%
    14:00 +1°C° 0 mm 6 m/s 763 mmHg 94%
    15:00 +1°C° 0 mm 6 m/s 762 mmHg 94%
    16:00 +1°C° 0 mm 5 m/s 762 mmHg 94%
    17:00 +1°C° 0 mm 5 m/s 762 mmHg 95%
    18:00 +1°C° 0 mm 5 m/s 762 mmHg 94%
    19:00 +1°C° 0 mm 5 m/s 763 mmHg 94%
    20:00 +1°C° 0 mm 5 m/s 763 mmHg 94%
    21:00 0°C° 0 mm 5 m/s 763 mmHg 94%
    22:00 0°C° 0 mm 4 m/s 763 mmHg 94%
    23:00 0°C° 0 mm 4 m/s 763 mmHg 94%

    Poimâine, 24 Februarie, Duminică

    Timp Temperatura Precipitaţii Vânt Presiune Umiditate
    00:00 -1°C° 0 mm 4 m/s 763 mmHg 94%
    01:00 -1°C° 0 mm 4 m/s 763 mmHg 94%
    02:00 -1°C° 0 mm 3 m/s 763 mmHg 94%
    03:00 -1°C° 0 mm 3 m/s 763 mmHg 95%
    04:00 -1°C° 0 mm 3 m/s 763 mmHg 95%
    05:00 -2°C° 0 mm 3 m/s 763 mmHg 95%
    06:00 -1°C° 0 mm 3 m/s 763 mmHg 96%
    07:00 -1°C° 0 mm 3 m/s 763 mmHg 96%
    08:00 0°C° 0 mm 3 m/s 763 mmHg 97%
    09:00 0°C° 0 mm 3 m/s 763 mmHg 97%
    10:00 0°C° 0 mm 3 m/s 763 mmHg 98%
    11:00 0°C° 0 mm 3 m/s 763 mmHg 98%
    12:00 +1°C° 0.1 mm 3 m/s 762 mmHg 98%
    13:00 +1°C° 0.1 mm 3 m/s 762 mmHg 97%
    14:00 +1°C° 0.1 mm 3 m/s 762 mmHg 96%
    15:00 0°C° 0.1 mm 4 m/s 761 mmHg 96%
    16:00 0°C° 0.1 mm 5 m/s 761 mmHg 96%
    17:00 +1°C° 0.1 mm 5 m/s 760 mmHg 95%
    18:00 +1°C° 0 mm 5 m/s 760 mmHg 94%
    19:00 +1°C° 0 mm 6 m/s 760 mmHg 92%
    20:00 +2°C° 0 mm 6 m/s 759 mmHg 90%
    21:00 +2°C° 0 mm 6 m/s 759 mmHg 89%
    22:00 0°C° 0 mm 7 m/s 759 mmHg 88%
    23:00 0°C° 0 mm 7 m/s 759 mmHg 86%

    25 Februarie, Luni

    Timp Temperatura Precipitaţii Vânt Presiune Umiditate
    00:00 0°C° 0 mm 7 m/s 760 mmHg 83%
    01:00 -1°C° 0 mm 7 m/s 760 mmHg 80%
    02:00 -1°C° 0 mm 7 m/s 760 mmHg 77%
    03:00 -1°C° 0 mm 7 m/s 761 mmHg 77%
    04:00 -2°C° 0 mm 7 m/s 761 mmHg 77%
    05:00 -3°C° 0 mm 6 m/s 762 mmHg 77%
    06:00 -3°C° 0 mm 6 m/s 761 mmHg 79%
    07:00 -3°C° 0 mm 6 m/s 761 mmHg 80%
    08:00 -3°C° 0 mm 6 m/s 761 mmHg 82%
    09:00 -2°C° 0 mm 6 m/s 761 mmHg 81%
    10:00 -2°C° 0 mm 6 m/s 761 mmHg 79%
    11:00 -1°C° 0 mm 6 m/s 760 mmHg 78%
    12:00 +1°C° 0 mm 6 m/s 760 mmHg 77%
    13:00 +1°C° 0 mm 6 m/s 759 mmHg 76%
    14:00 +2°C° 0 mm 6 m/s 759 mmHg 76%
    15:00 +1°C° 0 mm 6 m/s 759 mmHg 76%
    16:00 +1°C° 0 mm 6 m/s 759 mmHg 77%
    17:00 +1°C° 0 mm 6 m/s 758 mmHg 77%
    18:00 -1°C° 0 mm 6 m/s 759 mmHg 78%
    19:00 -1°C° 0 mm 6 m/s 759 mmHg 79%
    20:00 -2°C° 0 mm 6 m/s 759 mmHg 79%
    21:00 -2°C° 0 mm 5 m/s 759 mmHg 82%
    22:00 -2°C° 0 mm 5 m/s 759 mmHg 84%
    23:00 -3°C° 0 mm 4 m/s 760 mmHg 86%

    26 Februarie, Marţi

    Timp Temperatura Precipitaţii Vânt Presiune Umiditate
    00:00 -3°C° 0 mm 4 m/s 760 mmHg 88%
    01:00 -4°C° 0 mm 3 m/s 759 mmHg 90%
    02:00 -4°C° 0 mm 3 m/s 759 mmHg 92%
    03:00 -4°C° 0 mm 3 m/s 759 mmHg 92%
    04:00 -4°C° 0 mm 3 m/s 758 mmHg 92%
    05:00 -5°C° 0 mm 3 m/s 758 mmHg 93%
    06:00 -4°C° 0.2 mm 3 m/s 757 mmHg 93%
    07:00 -2°C° 0.2 mm 3 m/s 756 mmHg 94%
    08:00 -2°C° 0.2 mm 3 m/s 755 mmHg 95%
    09:00 -1°C° 1.3 mm 3 m/s 755 mmHg 92%
    10:00 -1°C° 1.3 mm 4 m/s 754 mmHg 89%
    11:00 0°C° 1.3 mm 4 m/s 754 mmHg 87%
    12:00 +1°C° 0 mm 5 m/s 754 mmHg 82%
    13:00 +1°C° 0 mm 5 m/s 754 mmHg 77%
    14:00 +1°C° 0 mm 6 m/s 755 mmHg 73%
    15:00 +1°C° 0 mm 6 m/s 755 mmHg 75%
    16:00 0°C° 0 mm 5 m/s 755 mmHg 76%
    17:00 -1°C° 0 mm 5 m/s 756 mmHg 78%
    18:00 -1°C° 0 mm 5 m/s 756 mmHg 80%
    19:00 -1°C° 0 mm 5 m/s 757 mmHg 83%
    20:00 -2°C° 0 mm 4 m/s 758 mmHg 85%
    21:00 -2°C° 0 mm 4 m/s 758 mmHg 86%
    22:00 -2°C° 0 mm 5 m/s 758 mmHg 88%
    23:00 -2°C° 0 mm 5 m/s 759 mmHg 89%

    27 Februarie, Miercuri

    Timp Temperatura Precipitaţii Vânt Presiune Umiditate
    00:00 -4°C° 0 mm 5 m/s 759 mmHg 87%
    01:00 -4°C° 0 mm 5 m/s 759 mmHg 85%
    02:00 -4°C° 0 mm 5 m/s 759 mmHg 83%
    03:00 -5°C° 0 mm 5 m/s 760 mmHg 85%
    04:00 -5°C° 0 mm 5 m/s 760 mmHg 87%
    05:00 -5°C° 0 mm 5 m/s 760 mmHg 88%
    06:00 -4°C° 0 mm 4 m/s 759 mmHg 89%
    07:00 -5°C° 0 mm 3 m/s 759 mmHg 90%
    08:00 -5°C° 0 mm 3 m/s 759 mmHg 90%
    09:00 -4°C° 0 mm 3 m/s 758 mmHg 85%
    10:00 -2°C° 0 mm 4 m/s 757 mmHg 80%
    11:00 -1°C° 0 mm 5 m/s 756 mmHg 74%
    12:00 -2°C° 0 mm 6 m/s 754 mmHg 75%
    13:00 -1°C° 0 mm 6 m/s 753 mmHg 76%
    14:00 -1°C° 0 mm 7 m/s 751 mmHg 77%
    15:00 0°C° 0 mm 7 m/s 750 mmHg 80%
    16:00 0°C° 0 mm 7 m/s 749 mmHg 84%
    17:00 +1°C° 0 mm 6 m/s 748 mmHg 87%
    18:00 +1°C° 0 mm 6 m/s 747 mmHg 88%
    19:00 +1°C° 0 mm 6 m/s 746 mmHg 89%
    20:00 +1°C° 0 mm 6 m/s 745 mmHg 90%
    21:00 +1°C° 0 mm 6 m/s 744 mmHg 89%
    22:00 +1°C° 0 mm 6 m/s 743 mmHg 88%
    23:00 +1°C° 0 mm 6 m/s 741 mmHg 87%
    Arată mai mult